[[{"header":{"parameterUnit":"m.s-1","parameterCategory":1,"la1":30.2991,"la2":30.254,"lo1":-89.0895,"lo2":-89.0444,"dy":0.0017,"dx":0.0017,"nx":28,"ny":28,"refTime":"2025-03-10T09:00:00:Z","depth":0,"parameterNumber":2,"parameterNumberName":"U-component_of_WINDS"},"data":[0,0,0,0,0,0,0,0,0,0,0,0,0,0,0,0,0,0,0,0,0,0,0,0,0,0,0,0,0,0,0,0,0,0,0,0,0,0,0,0,0,0,0,0,0,0,0,0,0,0,0,0,0,0,0,0,0,0,7.2746,7.2748,0,7.2913,7.2915,7.2917,7.2842,7.2838,7.2834,7.283,7.3009,7.3018,7.3026,0,0,0,0,0,0,0,0,0,0,0,0,0,7.2368,7.2376,7.2746,7.2748,7.275,7.2913,7.2915,7.2918,7.2843,7.2838,7.2833,7.2828,7.3007,7.3017,7.3027,0,0,0,0,0,0,0,0,0,0,0,0,0,7.2534,7.2378,7.2745,7.2732,7.2733,7.2913,7.2915,7.2918,7.2844,7.2838,7.2832,7.2826,7.3003,7.3016,7.3029,7.3234,0,0,7.3068,7.3074,0,0,0,0,0,0,0,0,7.2525,7.2548,7.2732,7.2733,7.2734,7.285,7.2848,7.3024,7.2846,7.2802,7.283,7.2823,7.2962,7.2978,7.3023,7.3242,7.325,7.3069,7.3077,7.3083,7.3087,0,0,0,0,0,0,0,7.2513,7.254,7.2812,7.2735,7.2736,7.272,7.2737,7.2881,7.2915,7.2805,7.28,7.2821,7.2962,7.3011,7.3027,7.3253,7.3069,7.3081,7.3089,7.3094,7.3649,7.3656,0,0,0,0,0,0,7.2501,7.2531,7.2807,7.2817,7.2612,7.2732,7.2751,7.282,7.2913,7.2922,7.2826,7.2817,7.2992,7.3012,7.3033,7.328,7.3083,7.3095,7.3102,7.3642,7.3651,7.3658,0,0,0,0,0,0,7.2493,7.2526,7.28,7.2673,7.2706,7.2745,7.2823,7.2826,7.2875,7.2929,7.2935,7.287,7.2988,7.3015,7.3184,7.3285,7.3101,7.3113,7.3634,7.3645,7.3655,7.3775,0,0,0,0,0,0,7.2483,7.2524,7.26,7.2675,7.2714,7.2946,7.2829,7.2834,7.2897,7.2887,7.2972,7.298,7.2985,7.3165,7.3197,7.3299,7.3123,7.3625,7.3639,7.3651,7.3762,7.3788,7.381,0,0,0,0,0,7.2469,7.2629,7.2605,7.2638,7.281,7.2952,7.2975,7.2975,7.2905,7.2984,7.3018,7.2977,7.3269,7.3183,7.3218,7.3326,7.3619,7.3635,7.365,7.3751,7.3783,7.381,0,0,0,0,0,0,7.2568,7.2639,7.2612,7.28,7.2871,7.2939,7.3038,7.3008,7.3102,7.3088,7.3087,7.3107,7.3282,7.3321,7.3225,7.353,7.3434,7.3457,7.3498,7.3529,7.3553,7.354,7.3134,0,0,0,0,0,7.2611,7.2719,7.2776,7.2936,7.2973,7.3,7.3062,7.3056,7.3129,7.3159,7.3206,7.3282,7.339,7.3462,7.3564,7.3767,7.3786,7.3859,7.3883,7.3903,7.3923,7.4034,7.4068,7.371,7.371,7.3709,0,0,7.2703,7.2754,7.2823,7.2957,7.3011,7.3125,7.3025,7.3149,7.3234,7.3179,7.3341,7.3378,7.3462,7.3649,7.3734,7.3687,7.4026,7.3923,7.3938,7.3948,7.4054,7.4088,7.4118,7.372,7.3718,7.3717,0,0,7.2927,7.2976,7.3115,7.3171,7.3252,7.3269,7.3303,7.3376,7.3398,7.356,7.3521,7.3623,7.381,7.3871,7.3927,7.4175,7.4141,7.4209,7.4335,7.4444,7.4472,7.4497,7.4586,7.4618,7.4229,7.423,7.423,0,7.3031,7.3197,7.3192,7.3319,7.338,7.3332,7.3475,7.353,7.3642,7.3687,7.3632,7.3865,7.3918,7.4119,7.418,7.4226,7.4266,7.4199,7.4468,7.4493,7.4516,7.4601,7.4635,7.4237,7.4236,7.4235,7.4235,0,7.3321,7.3438,7.3541,7.3647,7.372,7.3855,7.3872,7.3947,7.3935,7.3958,7.4125,7.4187,7.4301,7.4349,7.434,7.455,7.4518,7.4466,7.4369,7.4558,7.4638,7.467,7.4248,7.4245,7.4243,7.4241,0,0,7.3613,7.3713,7.3751,7.3799,7.3886,7.3977,7.411,7.422,7.4284,7.4364,7.4477,7.4636,7.4588,7.4651,7.4649,7.4744,7.4937,7.468,7.4682,7.4726,7.5173,7.5211,7.5249,7.4915,7.4921,7.4926,7.5166,0,7.3843,7.4073,7.4072,7.4285,7.4394,7.4351,7.4467,7.4534,7.456,7.4658,7.4687,7.48,7.4728,7.4766,7.4858,7.4894,7.5027,7.4876,7.5022,7.5027,7.5002,7.5291,7.5332,7.5555,7.5197,7.5202,7.5206,0,7.4143,7.4229,7.4452,7.4523,7.4568,7.4672,7.4773,7.4866,7.4942,7.4955,7.5025,7.5008,7.5146,7.5044,7.5236,7.5133,7.5193,7.522,7.5229,7.5243,7.5128,7.5313,7.5627,7.5661,7.5255,7.5251,7.5248,0,7.4333,7.4506,7.4661,7.4704,7.479,7.4864,7.4904,7.4974,7.504,7.5129,7.5172,7.5277,7.5335,7.5418,7.543,7.5355,7.5623,7.5522,7.5638,7.5638,7.5697,7.5693,7.6025,7.5735,7.5735,7.5734,7.5733,0,7.4591,7.473,7.4748,7.4844,7.4999,7.4997,7.5151,7.5185,7.5248,7.5351,7.5322,7.542,7.543,7.5533,7.5544,7.5701,7.5728,7.5743,7.5744,7.5746,7.5744,7.5785,7.577,7.5743,7.5741,7.5739,7.5738,0,7.483,7.4847,7.5015,7.5082,7.5102,7.5213,7.5272,7.5365,7.5387,7.5519,7.555,7.5587,7.5706,7.5726,7.5867,7.5874,7.6063,7.6048,7.6036,7.6034,7.615,7.6139,7.652,7.657,7.6247,7.625,7.6253,0,7.4993,7.5099,7.5176,7.5242,7.5285,7.5392,7.5458,7.5462,7.5533,7.5627,7.571,7.5825,7.5917,7.611,7.6151,7.6259,7.6247,7.6373,7.6263,7.6261,7.625,7.6243,7.6254,7.6395,7.6398,7.6401,7.6403,0,7.5282,7.5285,7.538,7.548,7.5559,7.5638,7.5713,7.5769,7.5783,7.5865,7.5984,7.6056,7.6198,7.6314,7.6421,7.6465,7.6438,7.6437,7.647,7.6473,7.6462,7.647,7.6094,7.6429,7.6426,7.6424,7.6423,7.6422,7.5489,7.558,7.5649,7.5756,7.5812,7.5882,7.5973,7.6006,7.6104,7.6219,7.6216,7.6348,7.6422,7.6563,7.6614,7.6719,7.6679,7.6726,7.6738,7.675,7.6761,7.6444,7.6739,7.6738,7.6737,7.6737,7.6736,0,7.5776,7.5817,7.5916,7.602,7.6105,7.6069,7.615,7.6224,7.6339,7.641,7.6501,7.6639,7.6751,7.68,7.6911,7.6986,7.6976,7.7015,7.701,7.702,7.679,7.6751,7.7021,7.7021,7.7021,7.702,7.702,7.702,7.5935,7.6088,7.61,7.6281,7.6322,7.6448,7.6498,7.6563,7.6619,7.6774,7.6865,7.6896,7.6959,7.7073,7.7175,7.7187,7.723,7.7275,7.7281,7.7065,7.7036,7.7009,7.6972,7.7284,7.7284,7.7502,7.7504,7.7505]},{"header":{"parameterUnit":"m.s-1","parameterCategory":1,"la1":30.2991,"la2":30.254,"lo1":-89.0895,"lo2":-89.0444,"dy":0.0017,"dx":0.0017,"nx":28,"ny":28,"refTime":"2025-03-10T09:00:00:Z","depth":0,"parameterNumber":3,"parameterNumberName":"V-component_of_WINDS"},"data":[0,0,0,0,0,0,0,0,0,0,0,0,0,0,0,0,0,0,0,0,0,0,0,0,0,0,0,0,0,0,0,0,0,0,0,0,0,0,0,0,0,0,0,0,0,0,0,0,0,0,0,0,0,0,0,0,0,0,-2.7418,-2.7419,0,-2.7499,-2.75,-2.7501,-2.7487,-2.7486,-2.7485,-2.7483,-2.7569,-2.7573,-2.7577,0,0,0,0,0,0,0,0,0,0,0,0,0,-2.7254,-2.7257,-2.7418,-2.7419,-2.742,-2.7499,-2.75,-2.7501,-2.7488,-2.7486,-2.7484,-2.7483,-2.7568,-2.7573,-2.7577,0,0,0,0,0,0,0,0,0,0,0,0,0,-2.7329,-2.7258,-2.7417,-2.7422,-2.7424,-2.7499,-2.75,-2.7501,-2.7488,-2.7486,-2.7484,-2.7482,-2.7567,-2.7572,-2.7577,-2.7654,0,0,-2.7594,-2.7596,0,0,0,0,0,0,0,0,-2.7325,-2.7335,-2.7421,-2.7422,-2.7424,-2.7481,-2.7474,-2.7553,-2.7489,-2.7464,-2.7483,-2.7481,-2.7542,-2.7549,-2.7569,-2.7658,-2.7661,-2.7595,-2.7598,-2.76,-2.7602,0,0,0,0,0,0,0,-2.732,-2.7332,-2.745,-2.7422,-2.7424,-2.7422,-2.743,-2.7489,-2.7514,-2.7466,-2.7465,-2.7475,-2.7542,-2.7564,-2.7571,-2.7663,-2.7594,-2.7599,-2.7603,-2.7605,-2.7818,-2.782,0,0,0,0,0,0,-2.7312,-2.7327,-2.7447,-2.7452,-2.7368,-2.7426,-2.7436,-2.7465,-2.7513,-2.7518,-2.7476,-2.7474,-2.7556,-2.7565,-2.7574,-2.7667,-2.76,-2.7605,-2.7608,-2.7815,-2.7818,-2.7821,0,0,0,0,0,0,-2.7309,-2.7323,-2.7444,-2.739,-2.7405,-2.7431,-2.7464,-2.7467,-2.7489,-2.7521,-2.7526,-2.7494,-2.7555,-2.7567,-2.7634,-2.7669,-2.7608,-2.7613,-2.7813,-2.7816,-2.782,-2.7852,0,0,0,0,0,0,-2.7304,-2.7322,-2.7351,-2.739,-2.7408,-2.7502,-2.7466,-2.7471,-2.7498,-2.7495,-2.7539,-2.7544,-2.7554,-2.7626,-2.7639,-2.7676,-2.7617,-2.781,-2.7814,-2.7819,-2.7848,-2.7856,-2.7864,0,0,0,0,0,-2.7299,-2.7357,-2.7352,-2.7367,-2.7444,-2.7504,-2.7514,-2.7523,-2.7501,-2.753,-2.7551,-2.7542,-2.7663,-2.7633,-2.7648,-2.7687,-2.7807,-2.7813,-2.7818,-2.7845,-2.7855,-2.7863,0,0,0,0,0,0,-2.7322,-2.7362,-2.7357,-2.743,-2.7464,-2.7501,-2.7539,-2.7534,-2.7575,-2.7571,-2.7581,-2.7591,-2.766,-2.768,-2.7645,-2.7763,-2.7732,-2.7741,-2.7747,-2.7757,-2.7765,-2.7759,-2.7621,0,0,0,0,0,-2.7336,-2.738,-2.7413,-2.7474,-2.7491,-2.7512,-2.7538,-2.7543,-2.7578,-2.7592,-2.7618,-2.7653,-2.7699,-2.7729,-2.7773,-2.7851,-2.786,-2.7885,-2.7893,-2.7899,-2.7907,-2.795,-2.7961,-2.7839,-2.7839,-2.7839,0,0,-2.7365,-2.7392,-2.7419,-2.748,-2.7506,-2.7553,-2.7524,-2.7574,-2.7609,-2.76,-2.7665,-2.7685,-2.7725,-2.7798,-2.7832,-2.7817,-2.7942,-2.7906,-2.7911,-2.7915,-2.7956,-2.7968,-2.7978,-2.7842,-2.7842,-2.7841,0,0,-2.7441,-2.7466,-2.7519,-2.7546,-2.7586,-2.7599,-2.7612,-2.765,-2.7663,-2.7728,-2.7722,-2.7765,-2.7843,-2.7872,-2.7897,-2.7984,-2.7978,-2.7999,-2.804,-2.8081,-2.8091,-2.81,-2.8131,-2.8142,-2.8006,-2.8006,-2.8006,0,-2.7472,-2.7541,-2.7548,-2.7599,-2.7626,-2.7619,-2.7674,-2.77,-2.7752,-2.7772,-2.7754,-2.7853,-2.788,-2.7959,-2.7981,-2.8001,-2.8017,-2.7994,-2.8089,-2.8097,-2.8106,-2.8136,-2.8148,-2.8008,-2.8008,-2.8008,-2.8008,0,-2.7577,-2.7625,-2.7664,-2.7713,-2.7745,-2.7798,-2.7814,-2.7845,-2.7847,-2.7862,-2.7929,-2.7961,-2.8011,-2.803,-2.8033,-2.8111,-2.81,-2.8086,-2.8056,-2.8119,-2.8148,-2.816,-2.8011,-2.8011,-2.801,-2.8009,0,0,-2.7671,-2.7724,-2.7738,-2.776,-2.7803,-2.7841,-2.7894,-2.7942,-2.7969,-2.8005,-2.8051,-2.8117,-2.8104,-2.8133,-2.8138,-2.8175,-2.8242,-2.8156,-2.8157,-2.8171,-2.8331,-2.8342,-2.8355,-2.8238,-2.8241,-2.8242,-2.8328,0,-2.7752,-2.7844,-2.7852,-2.7935,-2.798,-2.7973,-2.8019,-2.8051,-2.8067,-2.8108,-2.8126,-2.8174,-2.8152,-2.817,-2.8206,-2.8227,-2.8275,-2.822,-2.8282,-2.8284,-2.8272,-2.837,-2.8382,-2.8461,-2.8339,-2.8341,-2.8342,0,-2.7859,-2.7897,-2.7984,-2.802,-2.804,-2.8081,-2.8126,-2.8165,-2.8201,-2.821,-2.8242,-2.8243,-2.8298,-2.8265,-2.8342,-2.8305,-2.833,-2.8345,-2.8348,-2.8355,-2.8317,-2.838,-2.8486,-2.8498,-2.836,-2.8358,-2.8357,0,-2.7919,-2.7993,-2.8054,-2.8074,-2.8118,-2.8147,-2.8167,-2.8201,-2.8229,-2.8269,-2.8288,-2.8334,-2.8359,-2.8395,-2.8409,-2.8383,-2.8486,-2.8454,-2.8496,-2.8495,-2.8518,-2.8517,-2.8631,-2.8533,-2.8533,-2.8533,-2.8533,0,-2.8009,-2.8063,-2.8082,-2.812,-2.818,-2.8189,-2.8249,-2.8268,-2.8298,-2.8341,-2.8338,-2.8378,-2.8393,-2.8436,-2.8447,-2.851,-2.8521,-2.8531,-2.8533,-2.8531,-2.853,-2.8549,-2.8544,-2.8536,-2.8535,-2.8535,-2.8534,0,-2.8087,-2.8102,-2.8169,-2.8204,-2.8215,-2.8258,-2.8289,-2.8326,-2.8341,-2.8395,-2.8408,-2.8432,-2.8483,-2.8499,-2.8561,-2.8568,-2.8641,-2.8638,-2.8628,-2.8629,-2.867,-2.8667,-2.8801,-2.882,-2.8709,-2.871,-2.8711,0,-2.8144,-2.8185,-2.8224,-2.8252,-2.8273,-2.8317,-2.8346,-2.8356,-2.8387,-2.8431,-2.8463,-2.8513,-2.8553,-2.8634,-2.8658,-2.8705,-2.8704,-2.8747,-2.8711,-2.8708,-2.8705,-2.8703,-2.8708,-2.8755,-2.8756,-2.8757,-2.8757,0,-2.8243,-2.8248,-2.8289,-2.8332,-2.8366,-2.8401,-2.8435,-2.8458,-2.8474,-2.8508,-2.8559,-2.859,-2.8652,-2.8702,-2.875,-2.8771,-2.8768,-2.8769,-2.8781,-2.878,-2.8773,-2.8778,-2.8648,-2.8766,-2.8765,-2.8764,-2.8764,-2.8764,-2.8313,-2.8349,-2.8382,-2.8428,-2.8454,-2.8486,-2.8522,-2.8541,-2.8583,-2.8634,-2.8638,-2.8693,-2.8729,-2.8792,-2.8816,-2.886,-2.8848,-2.8866,-2.8871,-2.8875,-2.8879,-2.8765,-2.8869,-2.8869,-2.8869,-2.8868,-2.8868,0,-2.8412,-2.8433,-2.8475,-2.8522,-2.8558,-2.8549,-2.8586,-2.8618,-2.8666,-2.8698,-2.8738,-2.8796,-2.8845,-2.8872,-2.892,-2.895,-2.895,-2.8963,-2.8961,-2.8966,-2.8886,-2.8871,-2.8962,-2.8962,-2.8962,-2.8962,-2.8962,-2.8962,-2.8469,-2.8529,-2.8538,-2.8612,-2.8633,-2.8686,-2.8708,-2.8738,-2.8764,-2.8829,-2.8868,-2.8885,-2.8916,-2.8967,-2.9011,-2.9018,-2.9036,-2.905,-2.9056,-2.8981,-2.8972,-2.8963,-2.8948,-2.9054,-2.9054,-2.9132,-2.9133,-2.9134]}]]